EW3560 Weather Reports


Display with metric or nautical units.
time (UTC)temp
F
wind
direction
speed
MPH
gust
MPH
rain 1hr
in
rain 24hr
in
rain mn
in
humidity
%
barometer
mb
20191209225040 41 0 0.0 0.0 0.04 0.53 0.53 72 1010.9
20191209224140 41 0 0.0 0.0 0.05 0.53 0.53 72 1011.0
20191209223240 41 0 0.0 0.0 0.04 0.52 0.52 71 1011.1
20191209222340 41 0 0.0 0.0 0.02 0.51 0.51 71 1011.1
20191209221440 41 0 0.0 0.0 0.02 0.51 0.51 71 1011.1
20191209220540 41 294 0.0 2.0 0.02 0.50 0.50 69 1011.1
20191209215640 41 321 1.0 2.0 0.02 0.50 0.50 69 1011.0
20191209214740 41 300 1.0 4.0 0.02 0.48 0.48 70 1010.9
20191209213840 41 321 1.0 3.0 0.04 0.48 0.48 68 1010.9
20191209212940 41 320 1.0 2.0 0.05 0.48 0.48 68 1010.9
20191209212040 41 274 2.0 4.0 0.06 0.48 0.48 68 1010.9
20191209211140 41 327 2.0 5.0 0.07 0.48 0.48 67 1010.7
20191209210240 41 74 1.0 5.0 0.07 0.47 0.47 67 1010.6
20191209205340 41 56 3.0 5.0 0.07 0.47 0.47 67 1010.5
20191209204440 41 33 2.0 5.0 0.07 0.46 0.46 67 1010.6
20191209203540 41 343 3.0 5.0 0.07 0.45 0.45 67 1010.8
20191209202640 40 335 3.0 6.0 0.07 0.44 0.44 66 1010.8
20191209201740 40 40 3.0 5.0 0.07 0.43 0.43 66 1010.7
20191209200840 41 353 4.0 7.0 0.07 0.41 0.41 66 1010.5
20191209194140 41 359 2.0 5.0 0.08 0.39 0.39 65 1010.6
20191209193240 41 18 3.0 4.0 0.08 0.37 0.37 65 1010.4
20191209192340 41 351 3.0 5.0 0.08 0.37 0.37 65 1010.4